#timestamp,LO_Frequency,Hit,StdDev 
1456394415.3,286047009.9,P
1456394435.1,286047011.7,P
1456394455.9,286047010.0,Y
1456394475.7,286047000.8,P
1456394495.5,286046998.6,N
1456394515.4,286046997.4,N
1456394535.2,286046999.6,N
1456394555.0,286046998.2,N
1456394555.9,286046998.2,N
1456394575.8,286047000.4,N
1456394595.6,286046998.5,N
1456394615.4,286047000.4,N
1456394635.2,286047000.9,N
1456394655.1,286046999.2,N
1456394656.0,286046999.2,N
1456394675.8,286047000.4,N
1456394695.6,286047000.3,N
1456394715.5,286047001.0,N
1456394735.3,286047000.2,N
1456394755.1,286046998.1,N
1456394775.9,286046995.2,N
1456394795.7,286046997.5,N
1456394815.5,286046998.1,N
1456394835.4,286047000.7,N
1456394855.2,286046996.5,N
1456394875.0,286046997.7,N
1456394875.9,286046997.7,N
1456394895.8,286046998.8,N
1456394915.6,286046997.5,N
1456394935.4,286047000.8,N
1456394955.2,286047002.2,N
1456394975.1,286047000.6,N
1456394976.0,286047000.6,N
1456394995.8,286046999.2,N
1456395015.7,286046993.6,Y
1456395035.5,286046998.0,P
1456395055.3,286046994.6,P
1456395075.1,286046992.9,P
1456395095.9,286046993.8,N
1456395115.7,286046999.2,N
1456395135.5,286046995.5,N
1456395155.4,286046995.1,N
1456395175.2,286046993.4,N
1456395195.0,286046996.7,N
1456395195.9,286046996.7,N
1456395215.8,286046999.6,N
1456395235.6,286047002.6,N
1456395255.4,286047003.8,N
1456395275.3,286047007.6,N
1456395295.1,286047007.2,N
1456395296.0,286047007.2,N
1456395315.8,286047004.0,N
1456395335.7,286047009.2,N
1456395355.5,286047010.3,N
1456395375.3,286047011.1,N
1456395395.1,286047009.7,N
1456395415.9,286047008.0,N
1456395435.7,286047010.1,N
1456395455.5,286047012.4,N
1456395475.4,286047008.3,N
1456395495.2,286047007.3,N
1456395515.0,286047003.9,N
1456395515.9,286047003.9,N
1456395535.8,286047003.0,N
1456395555.6,286047005.2,N
1456395575.4,286047004.5,N
1456395595.3,286047007.5,N
1456395615.1,286047007.3,N
1456395616.0,286047007.3,N
1456395635.8,286047005.7,N
1456395655.7,286047001.8,N
1456395675.5,286047001.2,N
1456395695.3,286047001.8,N
1456395715.2,286047004.3,N
1456395735.9,286047002.8,N
1456395755.7,286047003.1,N
1456395775.6,286047003.4,N
1456395795.4,286047002.8,N
1456395815.2,286046998.4,N
1456395835.0,286046996.3,N
1456395836.0,286046996.3,N
1456395855.8,286046993.5,N
1456395875.6,286046992.0,N
1456395895.4,286046992.7,N
1456395915.3,286046993.8,N
1456395935.1,286046993.8,N
1456395955.8,286046995.5,N
1456395975.7,286046995.2,N
1456395995.5,286046996.7,N
1456396015.3,286046995.0,N
1456396035.2,286046992.1,N
1456396055.9,286046988.9,N
1456396075.7,286046985.4,N
1456396095.6,286046988.1,N
1456396115.4,286046987.8,N
1456396135.2,286046988.2,N
1456396155.1,286046991.5,N
1456396156.0,286046991.5,N
1456396175.8,286046990.6,N
1456396195.6,286046991.9,N
1456396215.5,286046991.7,N
1456396235.3,286046994.8,N
1456396255.1,286046990.1,N
1456396275.8,286046992.3,N
1456396295.7,286046994.9,N
1456396315.5,286046995.7,N
1456396335.3,286046993.6,N
1456396355.2,286046993.9,N
1456396375.0,286046991.7,N
1456396375.9,286046991.7,N
1456396395.7,286046993.8,N
1456396415.6,286046995.2,N
1456396435.4,286046999.4,N
1456396455.2,286046998.5,N
1456396475.1,286046994.9,N
1456396476.0,286046994.9,N
1456396495.8,286046996.4,N
1456396515.6,286046993.5,N
1456396535.5,286046993.3,N
1456396555.3,286046993.4,N
1456396575.1,286046991.7,N
1456396595.9,286046994.7,N
1456396615.7,286046995.1,N
1456396635.5,286046994.5,N
1456396655.3,286046994.3,N
1456396675.2,286046992.1,Y
1456396695.0,286047003.9,P
1456396695.9,286047003.9,N
1456396715.8,286047005.8,N
1456396735.6,286047003.0,N
1456396755.4,286047002.3,N
1456396775.2,286046999.5,N
1456396795.1,286046996.9,N
1456396796.0,286046996.9,N
1456396815.8,286047000.6,N
1456396835.6,286047004.4,N
1456396855.5,286047007.6,N
1456396875.3,286047006.0,N
1456396895.1,286047009.6,N
1456396915.9,286047011.0,N
1456396935.7,286047006.2,N
1456396955.5,286047009.1,N
1456396975.4,286047010.6,N
1456396995.2,286047009.4,N
1456397015.0,286047013.6,N
1456397015.9,286047013.6,N
1456397035.8,286047012.7,N
1456397055.6,286047008.0,N
1456397075.4,286047008.2,N
1456397095.2,286047004.5,N
1456397115.1,286047007.6,N
1456397116.0,286047007.6,N
1456397135.8,286047006.6,N
1456397155.6,286047009.6,N
1456397175.5,286047011.6,N
1456397195.3,286047011.4,N
1456397215.1,286047010.3,N
1456397235.9,286047011.0,N
1456397255.7,286047013.3,N
1456397275.5,286047010.7,N
1456397295.4,286047007.4,N
1456397315.2,286047005.5,N
1456397335.0,286047005.2,N
1456397335.9,286047005.2,N
1456397355.8,286047003.2,N
1456397375.6,286046999.7,N
1456397395.4,286047001.1,N
1456397415.3,286046998.7,N
1456397435.1,286047000.2,N
1456397436.0,286047000.2,N
1456397455.8,286046999.7,N
1456397475.7,286047001.3,N
1456397495.5,286047000.6,N
1456397515.3,286047000.3,N
1456397535.1,286046999.0,N
1456397555.9,286047001.0,N
1456397575.7,286046998.0,N
1456397595.5,286046991.8,N
1456397615.4,286046994.2,N
1456397635.2,286046994.4,N
1456397655.0,286046995.2,N
1456397655.9,286046995.2,N
1456397675.8,286046994.5,N
1456397695.6,286046992.9,N
1456397715.4,286046991.5,N
1456397735.3,286046992.7,N
1456397755.1,286046993.5,N
1456397756.0,286046993.5,N
1456397775.8,286046995.6,N
1456397795.7,286046997.9,N
1456397815.5,286046997.8,N
1456397835.3,286046996.9,N
1456397855.2,286046998.1,N
1456397875.9,286047002.8,N
1456397895.7,286046999.6,N
1456397915.6,286047000.5,N
1456397935.4,286047002.6,N
1456397955.2,286047000.2,N
1456397975.0,286047003.9,N
1456397976.0,286047003.9,N
1456397995.8,286047000.3,N
